Other Public Products
Issued by NWS Grand Forks, ND

Home | Current Version | Previous Version | Text Only | Print | Product List | Glossary On
Versions: 1 2 3 4 5 6 7 8 9 10 11 12 13 14 15 16 17 18 19 20 21 22 23 24 25 26 27 28 29 30 31 32 33 34 35 36 37 38 39 40 41 42 43 44 45 46 47 48 49 50
000
FPUS83 KFGF 240231
OPUFGF
PRAIRIE TO PINES WEATHER ROUNDUP
NATIONAL WEATHER SERVICE EASTERN NORTH DAKOTA/GRAND FORKS ND
800 PM CST FRI FEB 23 2018

 **SATELLITE DATA USED TO AUGMENT SKY COVER AT AUTOMATED STATIONS**
 *****  WEATHER ACROSS EASTERN NORTH DAKOTA  *****

CITY           SKY/WX    TMP DP  RH WIND       PRES   REMARKS
GRAND FORKS    FAIR       3   0  87 SW8       30.23S WCI -10
GRND FORKS AFB FAIR       6   1  82 SW8       30.22S WCI  -7
GRND FORKS NWS   N/A      8   5  87 W5        30.21R WCI   0
BUXTON           N/A      7   6  95 S9          N/A  WCI  -6
DEVILS LAKE    FAIR       6   2  83 SW8       30.17S WCI  -7
FARGO          FAIR       8   4  83 SW9       30.28R WCI  -5
WAHPETON ARPT  FAIR      -2  -6  84 S3        30.31S
$$

 *****  WEATHER ACROSS CENTRAL AND WESTERN NORTH DAKOTA  *****

CITY           SKY/WX    TMP DP  RH WIND       PRES   REMARKS
JAMESTOWN      FAIR       6   3  87 SW7       30.21R WCI  -6
BISMARCK       FAIR       6   1  80 S5        30.19S WCI  -3
MINOT          FAIR       8   2  76 SE6       30.09F WCI  -2
MINOT AFB      FAIR       4  -1  81 S6        30.08F WCI  -7
GARRISON         N/A      4   0  83 S6        30.11S WCI  -7
WILLISTON      FAIR      10   1  67 S9        30.04F WCI  -3
DICKINSON      FAIR       6  -1  73 S10       30.03S WCI  -9
HETTINGER      FAIR       3  -6  66 S7        30.10S WCI  -9
$$

 *****  OTHER OBSERVATIONS NORTHEAST NORTH DAKOTA  *****

CITY           SKY/WX    TMP DP  RH WIND       PRES   REMARKS
WALHALLA       FAIR      10   9  92 SW5       30.17S WCI   2
LANGDON        FAIR       1   1 100 SW15      30.12S WCI -18
CAVALIER         N/A     10   5  79 SW5       30.19R WCI   2
GRAFTON        FAIR       5   1  85 S8        30.22F WCI  -8
CANDO          FAIR       3   1  92 SW10      30.16S WCI -12
FORT TOTTEN      N/A      8   3  81 SW3       29.95S
ROLLA          FAIR       5   3  92 SW8       30.09F WCI  -8
RUGBY          FAIR       5   1  85 SW12      30.13S WCI -11
 ***** THE ABOVE OBSERVATIONS ARE NON NWS ARE NOT QUALITY
        CONTROLLED AND MAY MIS-REPORT RAIN FOR SNOW...
$$

 *****  OTHER OBSERVATIONS SOUTHEAST NORTH DAKOTA *****

CITY           SKY/WX    TMP DP  RH WIND       PRES   REMARKS
COOPERSTOWN    FAIR       3   0  85 SW8       30.20F WCI -10
VALLEY CITY    FAIR       7   5  92 SW9       30.23F WCI  -7
OAKES            N/A      3   1  92 SW7       30.26S WCI  -9
GWINNER          N/A     -2  -6  84 SW9       30.26F WCI -18
SHEYENNE NWR     N/A      1  -1  89 SW5       29.95S WCI  -9
BUFFALO          N/A      8   3  80 E9          N/A  WCI  -5
WYNDMERE       NOT AVBL
 ***** THE ABOVE OBSERVATIONS ARE NON NWS ARE NOT QUALITY
       CONTROLLED AND MAY MIS-REPORT RAIN FOR SNOW...
$$

  *****  WEATHER ACROSS NORTHERN MINNESOTA  *****

CITY           SKY/WX    TMP DP  RH WIND       PRES   REMARKS
FLAG ISLAND    FAIR      16   1  53 SW6       30.14R WCI   7
WARROAD        FAIR       9   5  85 SW7       30.17S WCI  -3
ROSEAU         FAIR       9   3  78 SW8       30.18S WCI  -4
HALLOCK        FAIR       5   1  85 S6        30.19S WCI  -6
THF RVR FALLS  FAIR       4   1  88 SW8       30.21S WCI  -9
HALSTAD        NOT AVBL
FOSSTON        FAIR      -2  -4  92 S10       30.22F WCI -19
BAUDETTE       FAIR      12   4  70 W7        30.15R WCI   1
WASKISH        FAIR       9   3  78 SW9       30.19S WCI  -5
CROOKSTON      FAIR       1  -2  85 SW9       30.25R WCI -14
$$
  *****  WEATHER ACROSS CENTRAL AND WEST MINNESOTA  *****

CITY           SKY/WX    TMP DP  RH WIND       PRES   REMARKS
BEMIDJI        FAIR      10   3  76 W7        30.19S WCI  -2
PARK RAPIDS    FAIR       2  -4  76 W5        30.21R WCI  -8
WADENA         FAIR       5   1  85 SW7       30.25R WCI  -7
DETROIT LAKES  FAIR       7   3  85 S6        30.25S WCI  -3
MOORHEAD       FAIR       7   1  78 S5        30.28F WCI  -2
FERGUS FALLS   FAIR       5   1  85 CALM      30.30S
ELBOW LAKE     FAIR      -1  -3  90 CALM      30.29S
MORRIS MN      FAIR       0  -2  92 CALM      30.30R
STAPLES        FAIR       5   1  85 W5        30.25S WCI  -4
WHEATON        FAIR       3   1  92 CALM      30.33S
$$
  *****  WEATHER ELSEWHERE ACROSS MINNESOTA  *****

CITY           SKY/WX    TMP DP  RH WIND       PRES   REMARKS
DULUTH         CLOUDY    29  20  69 W8        30.16R WCI  21
INTRNTL FALLS  FAIR      19   7  59 W8G17     30.14R WCI   9
ELY            MOCLDY    19  19 100 CALM      30.13R
CLOQUET        CLOUDY    28  19  69 SW8       30.18R WCI  20
BRAINERD       FAIR      19   9  65 W9        30.24R WCI   8
HIBBING        FAIR      20  17  88 W3        30.16R
ALEXANDRIA     FAIR       8   4  83 W6        30.27R WCI  -2
SAINT CLOUD    FAIR      18  14  84 W6        30.27R WCI  10
MINNEAPOLIS    FAIR      23  19  85 SW6       30.29R WCI  16
$$

  *****  WEATHER ACROSS SOUTH DAKOTA  *****

CITY           SKY/WX    TMP DP  RH WIND       PRES   REMARKS
SIOUX FALLS    CLOUDY    17  15  92 N8        30.29F FOG     WCI   7
BROOKINGS      CLOUDY    14  12  92 W5        30.29S FOG     WCI   6
WATERTOWN      FOG        4   4 100 S3        30.26S VSB 1/2
HURON          FAIR       5   3  91 W3        30.30F
SISSETON         N/A      7   2  80 SW3       30.29R
ABERDEEN       FAIR      -4  -6  91 SW5       30.29S WCI -15
MITCHELL       FAIR       9   7  92 N3        30.31F
PIERRE         FAIR       2  -1  88 SE7       30.24S WCI -11
MOBRIDGE       FAIR       2  -3  80 SE9       30.20S WCI -13
RAPID CITY     FAIR      11   1  64 SE8       30.06F WCI  -1
$$

  *****  SOME WEATHER IN NEARBY STATES *****

CITY           SKY/WX    TMP DP  RH WIND       PRES   REMARKS
GLASGOW MT     FAIR       0  -5  79 SE14      29.92F WCI -19
GREAT FALLS MT FAIR      16   5  62 SW18      29.83R WCI   0
CHEYENNE WY    MOCLDY    22  18  85 SE9       29.90S WCI  12
SCOTTSBLUFF NE FAIR      19  13  77 E9        30.02F WCI   8
OMAHA NE       CLOUDY    24  20  84 NE10      30.28F FOG     WCI  14
DES MOINES IA  CLOUDY    26  22  84 N6        30.30R WCI  19
DAVENPORT IA   FAIR      32  27  81 NW5       30.29S
CHICAGO IL     CLOUDY    37  32  82 W5        30.24S
EAU CLAIRE WI  FAIR      22  18  85 SW7       30.26S FOG     WCI  13
LA CROSSE WI   CLOUDY    26  21  81 W9        30.30R HAZE    WCI  17
$$

  *****  SOME NATIONAL WEATHER *****

CITY           SKY/WX    TMP DP  RH WIND       PRES   REMARKS
LA GUARDIA NY  CLOUDY    42  39  89 SW5       30.25F
RALEIGH NC     FAIR      61  56  83 SE6       30.32S
ATLANTA GA     MOCLDY    70  59  68 SE6       30.28S
NEW ORLEANS LA FAIR      73  69  87 SE6       30.17R
OKLAHOMA CITY  DRIZZLE   38  37  97 NE8       30.05F FOG
ALBUQUERQUE NM FAIR      51   2  13 SW25G36   29.81R
SALT LAKE CITY MOCLDY    26  20  77 E5        30.14R WCI  20
LOS ANGELES CA FAIR      53  19  26 NW17G29   30.20R
BOISE ID       FAIR      28  11  48 E5        30.24F WCI  23
SEATTLE WA     LGT SNOW  33  31  92 S12       30.19F FOG     WCI  24
$$

*** WEATHER ACROSS MANITOBA...SASKATCHEWAN AND ONTARIO ***
                ***ONTARIO***

CITY           SKY/WX    TMP DP  RH WIND       PRES   REMARKS
GERALDTON      FLURRIES  18  16  93 SW5       30.03R WCI  11
THUNDER BAY    MOCLDY    25  21  86 W6        30.12R WCI  18
SIOUX LOOKOUT  CLEAR      5   0  78 CALM      30.06R
TORONTO        CLOUDY    43  41  93 W15       30.09R
BIG TROUT LK   CLEAR     -9 -17  70 SW2       30.02S
PICKLE LAKE    PTCLDY    12   0  57 W5        30.01R WCI   4
DRYDEN         CLEAR     18   5  57 SW6       30.07R WCI   9
KENORA         PTCLDY    16   1  53 W5        30.09R WCI   9
$$
                *** MANITOBA***

CITY           SKY/WX    TMP DP  RH WIND       PRES   REMARKS
BRANDON        CLEAR      7   3  85 SW12      30.07F WCI  -9
DAUPHIN        CLEAR     12   5  73 W5        30.02F WCI   4
ISLAND LAKE    CLOUDY    14   1  57 S7        29.98  WCI   4
PILOT MOUND      N/A      1  -2  85 S5          N/A  WCI  -8
THE PAS        MOCLDY    19   5  53 S15       29.81F WCI   5
THOMPSON       MOCLDY    14   3  62 S8G17     29.76F WCI   3
WINNIPEG       CLEAR     10   5  79 S9        30.15S WCI  -2
LYNN LAKE      CLOUDY    21  12  68 SW14G24   29.55F WCI   8
CHURCHILL      FLURRIES  -9 -18  64 S16       29.78F WCI -32
GILLAM         PTCLDY     1 -11  55 S12       29.86  WCI -15
$$
                ***SASKATCHEWAN***

CITY           SKY/WX    TMP DP  RH WIND       PRES   REMARKS
ESTEVAN        CLEAR      3  -2  78 S9        30.01F WCI -11
KINDERSLEY     MOCLDY     7   3  85 S8        29.65F WCI  -6
LLOYDMINSTER   MOCLDY    14   5  67 SW14      29.55F WCI  -1
PRINCE ALBERT  MOCLDY    14   7  73 S10       29.73F WCI   1
REGINA         CLEAR     10   3  72 S18       29.88F WCI  -8
YORKTON        CLEAR     12   7  79 S14G20    29.91F WC



USA.gov is the U.S. government's official web portal to all federal, state and local government web resources and services.